SCP
0 0 0 0 0 0 0 0 -0 0 0 -0 -0 -0 -0 -0 -0 -0 0 0 0 0 0 -0 -0 0 -0 -0 0 -0 0 -0 -0 -0 -0 -0 -0 -0 -0 -0 -0 -0 -0 -0 -0 -0 -0 -0 -0
0 0 0 0 0 0 0 -0 -0 0 0 0 0 -0 -0 -0 -0 0 0 0 0 0 0 -0 -0 -0 -0 -0 0 0 0 0 -0 -0 -0 -0 -0 0 0 -0 -0 -0 -0 -0 -0 -0 -0 0 0
0 0 0 0 0 0 0 -0 -0 -0 0 0 0 0 -0 -0 0 0 0 0 0 0 -0 -0 -0 -0 -0 0 0 0 0 0 -0 -0 -0 -0 -0 -0 -0 -0 -0 -0 -0 -0 -0 -0 0 -0 0
0 0 0 0 0 0 0 -0 -0 -0 0 -0 -0 0 0 0 -0 0 0 0 0 0 0 -0 0 -0 -0 -0 0 0 0 0 0 0 -0 -0 -0 -0 -0 -0 -0 -0 -0 -0 0 -0 -0 0 0
0 0 0 0 0 0 0 -0 -0 0 0 0 0 0 0 0 0 0 0 0 0 0 0 0 0 0 -0 -0 -0 -0 -0 0 0 0 0 0 0 -0 -0 -0 -0 -0 0 -0 -0 -0 -0 -0 -0
0 0 0 0 0 0 0 0 -0 0 0 0 -0 0 0 -0 0 0 0 0 0 0 0 0 0 0 0 -0 -0 -0 0 0 0 0 0 0 0 0 0 -0 -0 0 0 -0 -0 -0 -0 -0 -0
0 0 0 0 0 0 0 0 0 0 0 0 -0 0 0 -0 0 0 0 0 0 0 0 0 0 0 0 0 0 0 0 0 0 0 0 0 0 0 0 -0 -0 -0 -0 -0 -0 -0 -0 -0 -0
0 0 0 0 0 0 0 0 0 0 0 0 0 0 0 0 0 0 0 0 0 0 0 0 0 -0 -0 -0 0 0 0 0 0 0 0 0 0 0 0 0 -0 -0 -0 -0 -0 -0 -0 0 0
0 0 0 0 0 0 0 0 0 0 0 0 0 0 0 0 0 0 0 0 0 0 0 0 -0 0 -0 -0 -0 -0 -0 0 0 0 0 0 0 0 0 0 -0 -0 -0 -0 -0 -0 0 0 0
0 0 0 0 0 0 0 0 0 0 0 0 0 0 -0 -0 -0 -0 0 0 0 0 -0 0 0 0 0 0 0 -0 -0 -0 -0 -0 -0 -0 0 0 0 -0 -0 -0 -0 -0 0 0 0 0 0
0 0 0 0 0 0 0 0 0 0 0 0 0 0 0 0 0 0 0 0 0 0 0 -0 -0 -0 0 0 0 -0 -0 -0 -0 0 0 -0 -0 -0 -0 -0 -0 0 0 0 0 0 0 0 0
0 0 0 -0 0 0 0 0 0 0 0 0 0 -0 0 0 0 0 0 0 0 0 0 -0 -0 -0 -0 0 0 -0 -0 0 0 0 -0 -0 -0 -0 -0 -0 0 0 0 0 0 0 0 0 0
0 0 0 0 0 0 0 0 0 0 0 0 0 0 0 0 0 0 0 0 0 0 0 -0 -0 -0 -0 -0 -0 -0 -0 -0 -0 -0 -0 -0 -0 -0 0 0 0 0 0 0 0 0 0 0 0
0 0 0 0 0 0 0 0 0 0 0 0 0 0 0 0 0 0 0 0 0 0 0 0 -0 -0 -0 -0 -0 -0 -0 -0 -0 -0 -0 -0 -0 0 0 0 0 0 0 0 0 0 0 0 0
0 0 0 0 0 0 0 0 0 0 0 0 0 0 0 0 0 0 0 0 0 0 -0 0 0 -0 -0 -0 -0 -0 -0 -0 -0 -0 0 0 0 0 0 0 0 0 0 0 0 0 0 0 0
0 0 0 0 0 0 0 -0 0 0 0 0 0 0 0 0 0 0 0 0 0 0 0 0 0 0 -0 -0 -0 -0 -0 -0 0 0 0 0 0 0 0 0 0 0 0 0 0 0 0 0 0
0 0 0 0 0 0 0 0 0 0 0 0 0 0 0 0 0 0 0 0 0 0 0 0 0 0 0 0 0 0 0 0 0 0 0 0 0 0 0 0 0 0 0 0 0 0 0 0 0
0 0 0 0 0 0 0 0 0 0 0 0 0 0 0 0 0 0 0 0 0 0 0 0 0 0 0 0 0 0 0 0 0 0 0 0 0 0 0 0 0 0 0 0 0 0 0 0 0
0 0 0 0 0 0 0 0 0 0 0 0 0 0 0 0 0 -0 -0 0 0 0 0 0 0 0 0 0 0 0 0 0 0 0 0 0 0 0 0 0 0 0 0 0 0 0 0 0 0
0 0 0 0 0 0 0 -0 0 0 0 0 0 0 -0 0 0 0 0 0 0 0 0 0 0 0 0 0 0 0 0 0 0 0 0 0 0 0 0 0 0 0 0 0 0 0 0 0 0
0 0 0 0 0 0 0 -0 0 0 0 0 0 0 0 -0 0 0 0 0 0 0 0 0 0 0 0 0 0 0 0 0 0 0 0 0 0 0 0 0 0 0 0 0 0 0 0 0 0
0 0 0 0 0 0 0 0 0 0 0 0 0 0 0 0 0 0 0 0 0 0 0 0 0 0 0 0 0 0 0 0 0 0 0 0 0 0 0 0 0 0 0 0 0 0 0 0 0
0 0 0 0 0 0 0 0 0 0 0 0 0 0 0 0 0 0 0 0 0 0 0 0 0 0 0 0 0 0 0 0 0 0 0 0 0 0 0 0 0 0 0 0 0 0 0 0 0
0 0 0 0 0 0 0 0 -0 0 0 0 0 0 0 0 0 0 0 0 0 0 0 0 0 0 0 0 0 0 0 0 0 0 0 0 0 0 0 0 0 0 0 0 0 0 0 0 0
0 0 0 0 0 0 0 0 0 0 0 0 0 0 0 0 0 0 0 0 0 0 0 0 0 0 0 0 0 0 0 0 0 0 0 0 0 0 0 0 0 0 0 0 0 0 0 0 0
0 0 0 0 0 0 0 -0 -0 -0 -0 0 0 0 0 0 0 0 0 0 0 0 0 0 0 0 0 0 0 0 0 0 0 0 0 0 0 0 0 0 0 0 0 0 0 0 0 0 0
0 0 0 0 0 0 0 0 0 0 0 0 0 0 0 0 0 0 0 0 0 0 0 0 0 0 0 0 0 0 0 0 0 0 0 0 0 0 0 0 0 0 0 0 0 0 0 0 0
0 0 0 0 0 0 0 0 0 0 0 0 0 0 0 0 0 0 0 0 0 0 0 0 0 0 0 0 0 0 0 0 0 0 0 0 0 0 0 0 0 0 0 0 0 0 0 0 0
0 0 0 0 0 0 0 0 0 0 0 0 0 0 0 0 0 0 0 0 0 0 0 0 0 0 0 0 0 0 0 0 0 0 0 0 0 0 0 0 0 0 0 0 0 0 0 0 0
0 0 0 0 0 0 0 0 0 0 0 0 0 0 0 0 0 0 0 0 0 0 0 0 0 0 0 0 0 0 0 0 0 0 0 0 0 0 0 0 0 0 0 0 0 0 0 0 0
Wind_Speed_500mb
19 21 24 10 8 9 4 3 11 11 8 12 19 23 23 20 7 12 27 27 24 23 22 25 26 20 23 27 24 25 26 26 28 26 24 24 21 20 19 20 27 26 29 31 33 37 37 39 43
16 21 12 5 7 5 6 8 17 9 19 24 24 34 19 8 27 40 41 27 21 27 24 26 26 25 28 33 29 26 26 26 25 24 23 24 20 17 20 26 31 31 33 33 34 35 36 35 43
16 18 8 6 5 3 8 9 15 22 22 16 12 22 12 17 42 32 30 25 25 32 28 28 28 26 26 31 35 32 28 30 28 26 26 28 27 24 23 25 33 34 33 33 35 36 35 38 43
15 4 8 6 1 11 10 12 42 20 12 15 31 21 21 12 22 35 35 25 25 32 31 29 32 28 29 29 30 31 30 29 26 23 20 29 31 29 25 28 30 31 34 35 34 35 36 36 38
13 7 3 2 3 2 8 41 35 12 17 11 15 8 14 22 25 47 34 24 24 34 32 28 29 29 31 32 31 29 32 32 28 22 19 23 29 34 30 24 23 27 31 32 33 33 33 33 34
5 5 4 5 4 4 12 38 32 19 30 26 30 20 11 29 46 42 35 26 25 32 34 33 29 30 27 30 30 30 29 27 24 21 18 19 17 29 30 24 26 25 26 27 28 30 31 32 31
4 5 5 9 9 6 8 18 27 31 23 10 33 11 26 42 44 45 33 25 26 29 30 32 30 30 28 27 28 29 28 26 24 22 20 18 16 18 26 22 26 24 22 24 26 28 30 30 29
2 5 10 6 4 5 11 11 31 33 10 26 17 14 20 52 46 39 33 26 23 28 29 28 28 26 29 29 27 28 28 27 25 23 21 19 16 14 17 20 25 22 21 21 22 24 26 26 23
9 6 7 8 16 3 12 8 14 16 24 12 10 25 29 59 55 48 42 32 26 29 31 29 28 26 25 26 27 25 25 24 23 23 22 21 18 14 16 21 22 20 18 19 20 21 22 22 19
7 4 16 8 8 9 10 12 16 12 18 12 17 21 40 64 61 56 54 45 35 31 34 32 30 28 26 24 25 23 22 21 19 18 18 17 17 16 16 19 20 18 16 16 15 14 12 12 12
7 9 6 12 14 20 6 8 9 26 4 20 33 43 58 64 63 57 55 53 43 32 31 30 30 32 31 28 24 23 21 20 19 15 12 14 14 15 17 17 17 15 13 11 11 10 8 8 7
6 17 21 27 15 11 4 1 9 16 6 20 28 36 51 65 67 60 54 53 49 47 38 35 31 30 29 32 28 25 21 19 17 15 13 11 10 12 13 13 13 12 11 10 9 8 7 6 6
15 13 35 13 17 27 11 6 10 19 16 18 32 40 43 53 64 61 52 48 49 54 51 44 39 39 33 33 32 31 28 22 18 17 15 14 12 12 12 12 13 12 9 7 7 6 6 6 5
24 28 29 27 30 16 10 7 11 16 19 23 31 42 40 41 57 64 58 55 53 48 55 53 48 45 39 35 35 30 28 26 25 22 20 19 17 14 12 11 10 11 10 10 10 10 8 7 6
21 15 8 19 21 10 14 11 14 30 17 36 38 43 43 44 46 62 63 65 59 52 50 59 53 49 47 41 37 35 33 29 28 26 26 25 21 19 17 16 16 14 14 14 13 12 12 11 9
12 8 12 10 19 12 18 14 27 38 28 32 36 42 43 46 50 49 53 60 62 55 53 57 59 56 52 47 43 39 41 38 34 30 29 29 27 24 23 22 21 21 18 17 16 16 14 12 10
5 8 8 8 39 10 14 8 28 34 48 46 42 42 49 47 51 52 51 55 59 57 55 56 61 62 60 53 48 45 43 44 39 39 37 35 34 32 31 29 27 25 20 20 20 17 13 12 13
9 11 8 13 14 13 16 15 13 10 10 55 54 49 55 57 53 52 55 55 59 62 59 57 59 63 65 62 56 52 51 48 47 47 45 42 41 39 38 38 35 32 33 29 24 22 26 23 20
18 13 17 17 14 14 21 13 22 43 38 31 40 45 39 64 57 49 52 55 61 61 66 64 62 65 70 72 70 66 64 58 55 53 49 49 47 44 43 43 43 37 37 33 28 28 28 22 18
20 22 19 4 7 9 10 18 18 30 44 45 49 45 53 40 69 67 58 63 68 68 66 70 70 66 70 73 73 72 66 62 57 53 52 52 51 48 46 46 47 43 40 36 32 33 28 20 24
20 31 17 19 7 4 1 14 13 20 48 55 64 67 67 56 45 76 68 61 67 75 75 76 76 71 69 71 71 75 72 67 64 63 61 59 56 54 50 47 47 43 43 41 38 37 37 32 31
33 14 12 18 9 7 9 10 11 11 21 32 57 73 73 69 65 62 72 68 66 65 71 75 75 74 72 69 73 78 80 77 74 69 65 63 60 58 54 50 50 42 42 48 42 41 42 42 42
15 34 2 10 8 8 6 1 13 10 12 16 45 77 77 72 69 66 66 71 67 64 66 69 76 77 75 73 75 77 80 77 74 71 66 63 61 59 54 52 53 50 48 47 45 47 49 49 51
25 32 14 10 6 6 16 11 10 9 15 11 18 57 77 77 71 66 74 58 70 69 66 67 74 78 80 77 77 78 77 77 76 73 70 66 65 61 58 56 57 58 55 52 50 47 46 39 37
26 36 7 4 7 13 2 11 23 11 15 10 13 16 32 56 63 68 60 73 76 73 72 70 69 74 78 77 77 76 74 74 75 73 71 70 68 68 65 61 63 65 65 60 54 51 46 43 43
50 32 14 17 9 8 5 14 13 26 45 24 12 11 17 22 19 18 39 60 60 72 75 73 72 70 73 77 79 78 76 76 75 74 73 73 71 68 64 62 63 63 64 68 64 59 56 52 48
18 24 15 15 5 7 10 12 19 11 12 18 23 21 23 17 22 31 29 35 44 61 64 65 68 69 70 73 77 81 81 82 80 78 77 75 72 70 68 62 63 63 64 65 71 68 65 63 58
30 21 11 3 12 7 9 10 11 12 21 16 12 19 21 17 14 20 29 31 34 45 53 55 58 62 64 67 72 77 81 83 84 82 82 80 75 68 62 63 61 62 65 65 70 74 70 74 65
12 27 11 12 9 11 7 12 15 24 21 20 23 28 24 18 17 17 21 25 29 34 42 49 56 60 65 68 71 74 77 79 82 85 84 80 70 62 66 68 65 61 63 59 65 74 70 75 70
12 18 3 10 13 6 7 10 8 18 21 45 37 33 26 24 18 14 12 6 7 15 26 32 36 40 47 56 63 68 74 78 76 75 68 64 65 66 68 67 69 66 64 62 58 60 66 69 68
Wind_Direction_500mb
316 321 316 336 43 63 238 66 121 83 46 74 67 90 103 62 42 135 156 185 172 157 150 143 142 138 135 142 131 123 118 112 106 104 106 109 102 85 78 90 93 91 87 84 85 85 86 91 95
315 322 314 335 87 31 273 147 102 106 121 99 67 109 43 64 103 130 147 162 174 156 146 144 143 136 136 147 145 129 119 117 107 103 114 121 99 88 81 97 91 87 81 80 84 87 92 93 90
309 313 323 98 108 218 168 122 129 119 121 113 103 75 79 109 130 138 155 170 166 137 137 136 134 129 129 149 155 152 129 131 129 114 105 116 113 104 103 93 95 90 88 90 91 94 97 96 91
332 294 271 96 296 293 116 157 121 120 111 98 114 81 91 156 139 151 162 172 143 133 137 138 135 126 122 131 155 162 145 146 146 139 114 113 125 112 108 104 93 92 90 89 90 91 93 97 98
321 300 343 287 251 90 80 133 127 124 133 107 115 103 86 124 149 158 168 170 152 140 142 136 134 129 124 122 124 132 139 144 152 152 133 126 127 120 110 114 103 95 90 89 88 92 98 102 102
319 351 9 262 173 143 105 143 134 127 132 110 105 104 103 138 151 154 167 171 152 147 146 141 136 132 130 128 126 128 133 140 146 152 149 146 134 119 122 122 118 103 97 97 97 97 98 99 101
69 62 260 304 205 108 146 141 140 140 130 129 140 95 141 154 155 157 179 173 154 154 152 149 145 139 137 133 133 133 133 134 138 140 143 150 151 134 142 126 118 112 109 104 99 98 98 99 98
55 61 337 293 270 144 157 115 86 120 121 121 133 148 175 166 161 164 175 179 165 162 159 156 152 150 146 141 138 137 136 136 136 135 138 149 157 150 145 132 127 121 111 105 105 105 105 103 101
93 60 252 282 4 195 151 113 76 103 123 104 112 156 172 164 166 169 165 182 184 172 167 166 163 161 159 151 142 143 141 139 140 142 144 147 150 139 131 135 131 126 118 112 112 114 115 116 113
120 153 204 209 312 329 159 123 130 118 126 94 113 130 158 168 172 178 174 181 194 181 173 175 176 173 171 166 155 150 147 144 144 142 146 146 138 134 127 140 139 136 128 121 119 120 125 126 125
197 205 222 264 283 330 255 119 154 140 192 191 174 155 167 176 180 187 183 186 192 187 189 183 192 186 183 179 171 164 160 156 156 153 151 141 135 138 142 145 150 148 141 135 121 118 125 116 111
193 222 187 238 247 290 343 95 163 190 210 199 195 183 174 184 187 191 189 192 190 187 201 194 199 202 190 188 184 181 177 175 170 170 161 154 157 152 155 158 161 163 159 168 147 136 134 146 143
208 206 191 203 216 264 241 227 191 232 183 146 176 183 186 191 193 194 201 201 202 197 203 205 205 205 208 204 201 190 190 188 186 184 182 181 179 175 172 170 174 179 182 178 181 179 179 175 172
224 226 196 195 207 226 196 238 201 238 208 189 186 189 194 197 199 195 200 206 212 205 208 209 207 212 214 210 214 206 206 196 202 200 199 202 200 197 195 195 197 197 199 202 204 207 211 204 196
219 181 214 188 196 235 180 279 226 220 198 189 189 200 202 203 193 206 209 210 217 216 211 215 211 217 218 219 219 214 220 217 216 212 212 218 217 213 216 214 216 215 216 221 221 222 222 222 217
156 127 182 218 187 230 159 250 218 224 211 196 192 199 211 216 215 208 211 215 217 220 218 214 219 219 222 222 222 221 217 224 227 225 223 224 230 229 232 232 234 231 228 230 237 236 232 233 244
241 181 165 193 192 159 186 241 232 230 223 218 210 209 216 219 224 223 215 216 216 221 224 222 219 222 225 226 226 226 225 225 226 228 230 231 232 237 241 243 247 246 236 233 250 248 251 252 255
157 133 181 200 198 186 207 231 271 231 223 222 215 215 215 218 223 223 220 215 218 224 227 229 226 222 224 228 229 229 230 230 228 229 234 234 235 237 240 240 243 240 232 245 248 238 234 240 244
164 182 182 216 209 165 216 217 237 253 267 240 214 219 216 222 231 228 227 224 223 226 227 229 228 225 222 223 225 228 229 232 232 232 235 238 241 240 242 242 245 244 246 250 251 234 226 235 238
178 194 209 342 120 165 254 258 236 230 243 246 235 228 232 233 222 219 220 222 225 228 227 231 234 233 226 227 229 233 236 238 243 244 242 242 244 245 245 244 246 248 242 235 236 233 236 231 234
176 208 193 218 165 261 16 279 224 230 232 238 240 238 236 229 231 216 216 221 226 227 230 232 235 236 232 230 230 232 235 240 241 243 244 245 246 249 250 249 247 254 241 239 243 239 239 237 242
187 191 258 149 135 207 153 272 291 224 234 221 229 228 232 229 230 222 220 221 229 233 236 235 236 238 239 236 233 233 235 236 241 245 249 249 249 250 252 251 248 254 246 245 250 238 242 244 250
192 139 346 156 154 66 244 157 266 263 274 233 225 229 232 233 232 226 225 226 233 238 239 237 234 236 240 241 240 239 239 244 247 250 252 252 251 250 255 252 247 247 247 247 245 244 246 251 253
151 128 94 351 97 248 202 164 256 230 220 236 236 230 234 237 238 236 232 232 234 238 242 240 236 237 238 240 241 241 242 245 247 249 250 252 253 252 251 249 248 247 246 247 248 248 244 255 263
138 141 114 174 219 224 129 196 243 246 239 194 167 190 235 244 248 245 235 235 236 236 240 243 240 239 240 240 242 245 247 248 251 254 255 253 254 253 252 250 248 249 247 246 245 243 241 252 260
169 166 151 168 197 200 339 226 244 223 239 252 211 202 204 213 219 236 238 237 239 240 240 243 243 242 242 241 242 246 249 250 253 255 255 256 257 258 258 255 253 251 249 246 245 244 243 246 254
188 193 154 99 27 92 214 283 306 245 235 201 202 219 237 233 231 234 231 231 232 234 240 246 247 244 245 243 244 245 249 251 253 257 259 259 259 260 260 257 253 252 251 248 244 243 244 250 254
190 161 127 29 138 199 256 269 226 214 205 212 186 188 200 205 228 222 222 228 232 230 233 238 241 245 248 248 247 248 249 252 255 258 258 260 261 261 261 257 255 256 253 249 244 242 243 245 250
146 195 180 125 150 158 155 252 211 204 179 188 184 172 177 190 196 206 220 228 232 234 235 238 239 240 240 241 242 245 247 248 251 255 258 261 263 258 253 252 254 252 254 253 248 247 245 244 245
185 209 169 170 203 189 147 267 303 185 161 156 165 152 140 129 126 125 122 142 215 233 238 242 241 241 243 244 245 246 247 249 249 251 252 252 250 250 249 250 252 252 252 257 252 255 254 249 242
Wind_Speed_850mb
19 21 24 10 8 9 4 3 11 11 8 12 19 23 23 20 7 12 27 27 24 23 22 25 26 20 23 27 24 25 26 26 28 26 24 24 21 20 19 20 27 26 29 31 33 37 37 39 43
16 21 12 5 7 5 6 8 17 9 19 24 24 34 19 8 27 40 41 27 21 27 24 26 26 25 28 33 29 26 26 26 25 24 23 24 20 17 20 26 31 31 33 33 34 35 36 35 43
16 18 8 6 5 3 8 9 15 22 22 16 12 22 12 17 42 32 30 25 25 32 28 28 28 26 26 31 35 32 28 30 28 26 26 28 27 24 23 25 33 34 33 33 35 36 35 38 43
15 4 8 6 1 11 10 12 42 20 12 15 31 21 21 12 22 35 35 25 25 32 31 29 32 28 29 29 30 31 30 29 26 23 20 29 31 29 25 28 30 31 34 35 34 35 36 36 38
13 7 3 2 3 2 8 41 35 12 17 11 15 8 14 22 25 47 34 24 24 34 32 28 29 29 31 32 31 29 32 32 28 22 19 23 29 34 30 24 23 27 31 32 33 33 33 33 34
5 5 4 5 4 4 12 38 32 19 30 26 30 20 11 29 46 42 35 26 25 32 34 33 29 30 27 30 30 30 29 27 24 21 18 19 17 29 30 24 26 25 26 27 28 30 31 32 31
4 5 5 9 9 6 8 18 27 31 23 10 33 11 26 42 44 45 33 25 26 29 30 32 30 30 28 27 28 29 28 26 24 22 20 18 16 18 26 22 26 24 22 24 26 28 30 30 29
2 5 10 6 4 5 11 11 31 33 10 26 17 14 20 52 46 39 33 26 23 28 29 28 28 26 29 29 27 28 28 27 25 23 21 19 16 14 17 20 25 22 21 21 22 24 26 26 23
9 6 7 8 16 3 12 8 14 16 24 12 10 25 29 59 55 48 42 32 26 29 31 29 28 26 25 26 27 25 25 24 23 23 22 21 18 14 16 21 22 20 18 19 20 21 22 22 19
7 4 16 8 8 9 10 12 16 12 18 12 17 21 40 64 61 56 54 45 35 31 34 32 30 28 26 24 25 23 22 21 19 18 18 17 17 16 16 19 20 18 16 16 15 14 12 12 12
7 9 6 12 14 20 6 8 9 26 4 20 33 43 58 64 63 57 55 53 43 32 31 30 30 32 31 28 24 23 21 20 19 15 12 14 14 15 17 17 17 15 13 11 11 10 8 8 7
6 17 21 27 15 11 4 1 9 16 6 20 28 36 51 65 67 60 54 53 49 47 38 35 31 30 29 32 28 25 21 19 17 15 13 11 10 12 13 13 13 12 11 10 9 8 7 6 6
15 13 35 13 17 27 11 6 10 19 16 18 32 40 43 53 64 61 52 48 49 54 51 44 39 39 33 33 32 31 28 22 18 17 15 14 12 12 12 12 13 12 9 7 7 6 6 6 5
24 28 29 27 30 16 10 7 11 16 19 23 31 42 40 41 57 64 58 55 53 48 55 53 48 45 39 35 35 30 28 26 25 22 20 19 17 14 12 11 10 11 10 10 10 10 8 7 6
21 15 8 19 21 10 14 11 14 30 17 36 38 43 43 44 46 62 63 65 59 52 50 59 53 49 47 41 37 35 33 29 28 26 26 25 21 19 17 16 16 14 14 14 13 12 12 11 9
12 8 12 10 19 12 18 14 27 38 28 32 36 42 43 46 50 49 53 60 62 55 53 57 59 56 52 47 43 39 41 38 34 30 29 29 27 24 23 22 21 21 18 17 16 16 14 12 10
5 8 8 8 39 10 14 8 28 34 48 46 42 42 49 47 51 52 51 55 59 57 55 56 61 62 60 53 48 45 43 44 39 39 37 35 34 32 31 29 27 25 20 20 20 17 13 12 13
9 11 8 13 14 13 16 15 13 10 10 55 54 49 55 57 53 52 55 55 59 62 59 57 59 63 65 62 56 52 51 48 47 47 45 42 41 39 38 38 35 32 33 29 24 22 26 23 20
18 13 17 17 14 14 21 13 22 43 38 31 40 45 39 64 57 49 52 55 61 61 66 64 62 65 70 72 70 66 64 58 55 53 49 49 47 44 43 43 43 37 37 33 28 28 28 22 18
20 22 19 4 7 9 10 18 18 30 44 45 49 45 53 40 69 67 58 63 68 68 66 70 70 66 70 73 73 72 66 62 57 53 52 52 51 48 46 46 47 43 40 36 32 33 28 20 24
20 31 17 19 7 4 1 14 13 20 48 55 64 67 67 56 45 76 68 61 67 75 75 76 76 71 69 71 71 75 72 67 64 63 61 59 56 54 50 47 47 43 43 41 38 37 37 32 31
33 14 12 18 9 7 9 10 11 11 21 32 57 73 73 69 65 62 72 68 66 65 71 75 75 74 72 69 73 78 80 77 74 69 65 63 60 58 54 50 50 42 42 48 42 41 42 42 42
15 34 2 10 8 8 6 1 13 10 12 16 45 77 77 72 69 66 66 71 67 64 66 69 76 77 75 73 75 77 80 77 74 71 66 63 61 59 54 52 53 50 48 47 45 47 49 49 51
25 32 14 10 6 6 16 11 10 9 15 11 18 57 77 77 71 66 74 58 70 69 66 67 74 78 80 77 77 78 77 77 76 73 70 66 65 61 58 56 57 58 55 52 50 47 46 39 37
26 36 7 4 7 13 2 11 23 11 15 10 13 16 32 56 63 68 60 73 76 73 72 70 69 74 78 77 77 76 74 74 75 73 71 70 68 68 65 61 63 65 65 60 54 51 46 43 43
50 32 14 17 9 8 5 14 13 26 45 24 12 11 17 22 19 18 39 60 60 72 75 73 72 70 73 77 79 78 76 76 75 74 73 73 71 68 64 62 63 63 64 68 64 59 56 52 48
18 24 15 15 5 7 10 12 19 11 12 18 23 21 23 17 22 31 29 35 44 61 64 65 68 69 70 73 77 81 81 82 80 78 77 75 72 70 68 62 63 63 64 65 71 68 65 63 58
30 21 11 3 12 7 9 10 11 12 21 16 12 19 21 17 14 20 29 31 34 45 53 55 58 62 64 67 72 77 81 83 84 82 82 80 75 68 62 63 61 62 65 65 70 74 70 74 65
12 27 11 12 9 11 7 12 15 24 21 20 23 28 24 18 17 17 21 25 29 34 42 49 56 60 65 68 71 74 77 79 82 85 84 80 70 62 66 68 65 61 63 59 65 74 70 75 70
12 18 3 10 13 6 7 10 8 18 21 45 37 33 26 24 18 14 12 6 7 15 26 32 36 40 47 56 63 68 74 78 76 75 68 64 65 66 68 67 69 66 64 62 58 60 66 69 68
Wind_Direction_850mb
316 321 316 336 43 63 238 66 121 83 46 74 67 90 103 62 42 135 156 185 172 157 150 143 142 138 135 142 131 123 118 112 106 104 106 109 102 85 78 90 93 91 87 84 85 85 86 91 95
315 322 314 335 87 31 273 147 102 106 121 99 67 109 43 64 103 130 147 162 174 156 146 144 143 136 136 147 145 129 119 117 107 103 114 121 99 88 81 97 91 87 81 80 84 87 92 93 90
309 313 323 98 108 218 168 122 129 119 121 113 103 75 79 109 130 138 155 170 166 137 137 136 134 129 129 149 155 152 129 131 129 114 105 116 113 104 103 93 95 90 88 90 91 94 97 96 91
332 294 271 96 296 293 116 157 121 120 111 98 114 81 91 156 139 151 162 172 143 133 137 138 135 126 122 131 155 162 145 146 146 139 114 113 125 112 108 104 93 92 90 89 90 91 93 97 98
321 300 343 287 251 90 80 133 127 124 133 107 115 103 86 124 149 158 168 170 152 140 142 136 134 129 124 122 124 132 139 144 152 152 133 126 127 120 110 114 103 95 90 89 88 92 98 102 102
319 351 9 262 173 143 105 143 134 127 132 110 105 104 103 138 151 154 167 171 152 147 146 141 136 132 130 128 126 128 133 140 146 152 149 146 134 119 122 122 118 103 97 97 97 97 98 99 101
69 62 260 304 205 108 146 141 140 140 130 129 140 95 141 154 155 157 179 173 154 154 152 149 145 139 137 133 133 133 133 134 138 140 143 150 151 134 142 126 118 112 109 104 99 98 98 99 98
55 61 337 293 270 144 157 115 86 120 121 121 133 148 175 166 161 164 175 179 165 162 159 156 152 150 146 141 138 137 136 136 136 135 138 149 157 150 145 132 127 121 111 105 105 105 105 103 101
93 60 252 282 4 195 151 113 76 103 123 104 112 156 172 164 166 169 165 182 184 172 167 166 163 161 159 151 142 143 141 139 140 142 144 147 150 139 131 135 131 126 118 112 112 114 115 116 113
120 153 204 209 312 329 159 123 130 118 126 94 113 130 158 168 172 178 174 181 194 181 173 175 176 173 171 166 155 150 147 144 144 142 146 146 138 134 127 140 139 136 128 121 119 120 125 126 125
197 205 222 264 283 330 255 119 154 140 192 191 174 155 167 176 180 187 183 186 192 187 189 183 192 186 183 179 171 164 160 156 156 153 151 141 135 138 142 145 150 148 141 135 121 118 125 116 111
193 222 187 238 247 290 343 95 163 190 210 199 195 183 174 184 187 191 189 192 190 187 201 194 199 202 190 188 184 181 177 175 170 170 161 154 157 152 155 158 161 163 159 168 147 136 134 146 143
208 206 191 203 216 264 241 227 191 232 183 146 176 183 186 191 193 194 201 201 202 197 203 205 205 205 208 204 201 190 190 188 186 184 182 181 179 175 172 170 174 179 182 178 181 179 179 175 172
224 226 196 195 207 226 196 238 201 238 208 189 186 189 194 197 199 195 200 206 212 205 208 209 207 212 214 210 214 206 206 196 202 200 199 202 200 197 195 195 197 197 199 202 204 207 211 204 196
219 181 214 188 196 235 180 279 226 220 198 189 189 200 202 203 193 206 209 210 217 216 211 215 211 217 218 219 219 214 220 217 216 212 212 218 217 213 216 214 216 215 216 221 221 222 222 222 217
156 127 182 218 187 230 159 250 218 224 211 196 192 199 211 216 215 208 211 215 217 220 218 214 219 219 222 222 222 221 217 224 227 225 223 224 230 229 232 232 234 231 228 230 237 236 232 233 244
241 181 165 193 192 159 186 241 232 230 223 218 210 209 216 219 224 223 215 216 216 221 224 222 219 222 225 226 226 226 225 225 226 228 230 231 232 237 241 243 247 246 236 233 250 248 251 252 255
157 133 181 200 198 186 207 231 271 231 223 222 215 215 215 218 223 223 220 215 218 224 227 229 226 222 224 228 229 229 230 230 228 229 234 234 235 237 240 240 243 240 232 245 248 238 234 240 244
164 182 182 216 209 165 216 217 237 253 267 240 214 219 216 222 231 228 227 224 223 226 227 229 228 225 222 223 225 228 229 232 232 232 235 238 241 240 242 242 245 244 246 250 251 234 226 235 238
178 194 209 342 120 165 254 258 236 230 243 246 235 228 232 233 222 219 220 222 225 228 227 231 234 233 226 227 229 233 236 238 243 244 242 242 244 245 245 244 246 248 242 235 236 233 236 231 234
176 208 193 218 165 261 16 279 224 230 232 238 240 238 236 229 231 216 216 221 226 227 230 232 235 236 232 230 230 232 235 240 241 243 244 245 246 249 250 249 247 254 241 239 243 239 239 237 242
187 191 258 149 135 207 153 272 291 224 234 221 229 228 232 229 230 222 220 221 229 233 236 235 236 238 239 236 233 233 235 236 241 245 249 249 249 250 252 251 248 254 246 245 250 238 242 244 250
192 139 346 156 154 66 244 157 266 263 274 233 225 229 232 233 232 226 225 226 233 238 239 237 234 236 240 241 240 239 239 244 247 250 252 252 251 250 255 252 247 247 247 247 245 244 246 251 253
151 128 94 351 97 248 202 164 256 230 220 236 236 230 234 237 238 236 232 232 234 238 242 240 236 237 238 240 241 241 242 245 247 249 250 252 253 252 251 249 248 247 246 247 248 248 244 255 263
138 141 114 174 219 224 129 196 243 246 239 194 167 190 235 244 248 245 235 235 236 236 240 243 240 239 240 240 242 245 247 248 251 254 255 253 254 253 252 250 248 249 247 246 245 243 241 252 260
169 166 151 168 197 200 339 226 244 223 239 252 211 202 204 213 219 236 238 237 239 240 240 243 243 242 242 241 242 246 249 250 253 255 255 256 257 258 258 255 253 251 249 246 245 244 243 246 254
188 193 154 99 27 92 214 283 306 245 235 201 202 219 237 233 231 234 231 231 232 234 240 246 247 244 245 243 244 245 249 251 253 257 259 259 259 260 260 257 253 252 251 248 244 243 244 250 254
190 161 127 29 138 199 256 269 226 214 205 212 186 188 200 205 228 222 222 228 232 230 233 238 241 245 248 248 247 248 249 252 255 258 258 260 261 261 261 257 255 256 253 249 244 242 243 245 250
146 195 180 125 150 158 155 252 211 204 179 188 184 172 177 190 196 206 220 228 232 234 235 238 239 240 240 241 242 245 247 248 251 255 258 261 263 258 253 252 254 252 254 253 248 247 245 244 245
185 209 169 170 203 189 147 267 303 185 161 156 165 152 140 129 126 125 122 142 215 233 238 242 241 241 243 244 245 246 247 249 249 251 252 252 250 250 249 250 252 252 252 257 252 255 254 249 242